Погода в Приозёрске

Казахстан     46°01′41″N   73°42′32″E
темп.,
°C
ветер,
м/с
пор.,
м/с
влажн.,
%
обл.,
%
осадки,
мм/ч
давл.,
гПа
погр.,
м
25 февраля, чт
чт2500:00−13з5774100 0.1 1027838
03:00−14зюз496987 0.0 1029975
06:00−13зюз8136449 0.0 10301062
09:00−13зюз1219610 0.0 10321530
12:00−11зюз14206833 0.0 10321966
15:00−10зюз131868100 0.1 10342028
18:00−11з101479100 0.1 10351653
21:00−15зсз6972100 0.1 1038635
26 февраля, пт
пт2600:00−16зсз687499 0.1 1040721
03:00−16з597692 0.0 1041749
06:00−17з358077 0.0 1042536
09:00−16юз137950 0.0 1042455
12:00−13зюз347472 0.0 1041816
15:00−11з3466100 0.0 10401047
18:00−12св3386100 0.1 1039301
21:00−15всв459192 0.1 1039123
27 февраля, сб
сб2700:00−16всв469277 0.1 1038133
03:00−16св579065 0.0 1037221
06:00−17св579181 0.0 1036242
09:00−17св569398 0.0 1037255
12:00−14всв459099 0.0 1036322
15:00−10всв4586100 0.0 1035427
18:00−11св468783 0.0 1035174
21:00−13св45879 0.0 103568
28 февраля, вс
вс2800:00−12всв34814 0.0 103429
03:00−12в22800 0.0 103221
06:00−11зсз018332 0.0 103121
09:00−8ю1277100 0.0 103021
12:00−2ю466886 0.0 1028298
15:000ю367081 0.0 1026294
18:00−2ю227368 0.0 102423
21:00−5юв226881 0.0 102521
1 марта, пн
пн100:00−5ю226953 0.0 102421
03:00−6ююз11720 0.0 102321
06:00−7с117311 0.0 102221
09:00−4св117493 0.0 102321
12:000ююв116988 0.0 102244
15:00+1ю117146 0.0 102146
18:000ю226873 0.0 102122
21:00−1з2376100 0.0 102222